Find Starlink 34275

NORAD ID: 64413 Int'l Des: 2025-129 Owner: SPXS Country: US Constellation: starlink operational
LEOCIRCULAR

当前视图

正在加载3D地球...

About Starlink 34275

Starlink 34275 (NORAD 64413) is a starlink constellation satellite (v2 mini) launched Jun 17, 2025 by SPXS of US. It operates in LEO, CIRCULAR orbit with a mass of 575.00 kg.

关于 Starlink 34275

正在加载描述...

即将过境

Passes for default location (London). Set your location on the main map for personalized predictions.

高度历史

Loading altitude history...

两行轨道根数

1 64413U 25129B 26195.17999837 .00003863 00000-0 33129-3 0 9994
2 64413 70.0014 115.5582 0003050 265.1077 94.9734 14.98335033 60231
Epoch: Jul 14, 2026 • Age: 6 hours

当前状态

高度 584.0 km
远地点 / 近地点 N/A
速度 7.57 km/s
星下点 -36.03°S, 8.97°E
发射日期 Jun 17, 2025
运行时间 1 year
类型 internet

技术详情

分类 Payload
质量 575.00 kg
干质量 530.00 kg
总质量 575.00 kg
长度 0.30 m
直径 4.10 m
跨度 29.00 m
形状 Box + pan
制造商 SPXS
平台类型 Starlink V2MO
阶段状态 In Orbit
所有者/国家 SPXS/US

Most Searched